THOR ABLESTAR DEB, 178

Orbit data source: Space-Track

THOR ABLESTAR DEB, 178 is space debris in LEO originally from a launch on Thu, 29 Jun 1961 UTC launched from the Air Force Eastern Test Range (AFETR). Debris objects in space refer to the collection of defunct objects orbiting the Earth. Examples of debris include non-operational satellites, rocket bodies, and fragments generated from explosions, collisions, or faulty payload assembly.

Loading next visibility...
Identifier
178, 1961-015BC
Orbit
LEO
Country
Flag of USUS
Related business
Manufacturer
Unknown
Mission
Spacecraft
Bus & Motor
Unknown
Mass
Unknown
Launch date (UTC)
1961-06-29 (65 years ago)
Launch vehicle
Unknown
Launch site
Air Force Eastern Test Range (AFETR)
Object type
Payload
Rocket body
Debris
Shape & HBR
Unknown shape, 0.1 m
Radar Cross Section
Medium (>0.1 m² and <1 m²)

Expand to show TLE details & history
Last TLE update: 19 hours ago

TLE from 19 hours ago
0 THOR ABLESTAR DEB
1   178U 61015BC  26171.48184809  .00000001  00000-0  58367-4 0  9992
2   178  66.8659 352.5858 0080268 348.8975  11.0330 13.93065663297707
Epoch: 2026-06-20T11:33Z
TLE epoch observation values (Epoch: 2026-06-20T11:33:51.674Z)
Latitude
-0.00012°
Longitude
-89.5754°
Altitude
862.52 km
Speed
7.451 km/s
True Right ascension
23h 30m 20s
True Declination
0° 00' 00"
Sunlit
Object was in daylight at epoch
Visualization orbit readout
Latitude
Unknown
Longitude
Unknown
Altitude
Unknown
Speed
Unknown
Apparent Right ascension
Unknown
Apparent Declination
Unknown
Sunlit
N/A
Visualization observer readout
Local Sidereal Time
17:58:53
Azimuth
Unknown
Elevation
Unknown
Doppler factor
Unknown
Orbital elements
Apogee altitude
974.842 km
Perigee altitude
857.74 km
Semi-major axis
7,294.428 km
Eccentricity
0.00803
Inclination
66.8659°
RAAN
352.5858°
Arg. of periapsis
348.8975°
True anomaly
11.21078°
Mean anomaly
11.033°
Eccentric anomaly
11.12171°
Mean motion
3.48382 °/min
Orbital period
103.33 mins
BSTAR
0.000058367

Documentation

Showing up to 5 results
|